Regional Weather Roundup
Issued by NWS Portland, ME

Home | Current Version | Previous Version | Text Only | Print | Product List | Glossary On
Versions: 1 2 3 4 5 6 7 8 9 10 11 12 13 14 15 16 17 18 19 20 21 22 23 24 25 26 27 28 29 30 31 32 33 34 35 36 37 38 39 40 41 42 43 44 45 46 47 48 49 50
000
ASUS41 KGYX 181610
RWRGYX
WEATHER ROUNDUP FOR MAINE AND NEW HAMPSHIRE
NATIONAL WEATHER SERVICE GRAY ME
1200 PM EDT FRI APR 18 2014

MEZ002-005-006-010-012-015-018-020-021-024-026-027-029-181700-
MAINE

CITY           SKY/WX    TMP DP  RH WIND       PRES   REMARKS
PORTLAND       PTSUNNY   41  28  60 E14       30.54F
SANFORD        PTSUNNY   46  -6  11 SE5       30.50F
BAR HARBOR     SUNNY     41  28  60 NE7       30.56F
WISCASSET      MOSUNNY   44  27  51 MISG      30.56F
ROCKLAND       MOSUNNY   39  30  70 E10       30.57F
FRYEBURG       MOSUNNY   45  22  40 E7        30.49F
LEWISTONAUBURN SUNNY     45  27  49 S10       30.51F
AUGUSTA        SUNNY     44  22  41 SE6       30.52F
WATERVILLE     SUNNY     45  23  42 S8        30.47F
BANGOR         MOSUNNY   46  24  42 SE7       30.53F
GREENVILLE       N/A     40  20  44 SE8       30.43F
MILLINOCKET    MOSUNNY   44  22  41 VRB6      30.51F
HOULTON        PTSUNNY   44  24  45 S9        30.49F
PRESQUE ISLE   CLOUDY    43  23  45 E12       30.49F
FRENCHVILLE    CLOUDY    37  19  48 S9        30.44F
CARIBOU        CLOUDY    39  24  55 SE9       30.48F
$$

NHZ002-005-008-009-011-012-014-181700-
NEW HAMPSHIRE

CITY           SKY/WX    TMP DP  RH WIND       PRES   REMARKS
PORTSMOUTH     CLOUDY    42  26  53 SE10      30.52F
ROCHESTER      PTSUNNY   42  27  55 SE9       30.50F
NASHUA         CLOUDY    40  28  62 CALM      30.51F
MANCHESTER     CLOUDY    41  27  57 E8        30.50F
CONCORD        MOSUNNY   45  26  47 VRB6      30.51F
LACONIA        MOSUNNY   43  25  49 NE7       30.49F
PLYMOUTH         N/A     44  22  42 E10G16    30.47F
BERLIN         MOSUNNY   47  15  27 SE10G20   30.42F
WHITEFIELD     MOSUNNY   47  15  27 CALM      30.40F
JAFFREY        PTSUNNY   39  27  62 VRB5      30.46F
LEBANON        PTSUNNY   44  18  35 S6G16     30.45F
MT WASHINGTON  MOSUNNY   28  -8  20 S16         N/A  WCI  17
$$

VTZ005-007-008-181700-
VERMONT

CITY           SKY/WX    TMP DP  RH WIND       PRES   REMARKS
ST JOHNSBURY     N/A     46  13  26 MISG      30.41F
MONTPELIER     PTSUNNY   44  12  27 S10G20    30.45F
BURLINGTON     PTSUNNY   49  10  20 S14G20    30.39F
$$

MAZ007-012-024-CTZ003-RIZ002-NYZ038-NYZ072-181700-
SOUTHERN NEW ENGLAND AND NY

CITY           SKY/WX    TMP DP  RH WIND       PRES   REMARKS
BOSTON         CLOUDY    41  30  65 E10       30.53F
WORCESTER      CLOUDY    37  27  67 E9        30.46F
NANTUCKET      CLOUDY    44  36  73 NE14      30.47F
PROVIDENCE     CLOUDY    44  29  55 NE7       30.49F
HARTFORD       CLOUDY    43  27  53 VRB3      30.47F
ALBANY         CLOUDY    45  21  38 S6G16     30.45F
NEW YORK CITY  CLOUDY    40  27  59 NE9       30.50F
$$

ANZ081-ANZ082-ANZ150-NHZ014-MEZ023>029-181700-
COASTAL MARINE OBSERVATIONS

STATION/POSITION TIME  TEMP    WIND        PRES    WAVE
                       AIR SEA DIR/SP/G            HT/PER
                 (UTC) (F)     (DEG/KT/KT) (MB)    (FT/S)
MOUNT DESERT ROC 1600   36                 1034.6F
MATINICUS ROCK   1600   37     110/  8/  9 1035.1F
PORTLAND WX BUOY 1600   38 40   90/  8/  8 1034.4F   5/ 8
WELLS            1600   38 38  100/  8/  9 1033.0F
ISLE OF SHOALS   1600   38      80/ 11/ 13 1032.9F
JEFFREYS LEDGE   1600      41                N/A     6/ 8
CASHES LEDGE BUO 1600   37 41   70/  8/ 12 1034.6S   6/ 9
$$

.............KEY..............
   WCI - WIND CHILL
   TC  - TEMPERATURE IN CELSIUS
   VSB - VISIBILITY IN MILES
   HX  - HEAT INDEX
   FAIR- INDICATES FEW OR NO CLOUDS BELOW 12,000 FT, WITH NO
         SIGNIFICANT WEATHER AND/OR OBSTRUCTIONS TO VISIBILITY.





USA.gov is the U.S. government's official web portal to all federal, state and local government web resources and services.